"Pseudo-MPEC" for P115Ofk

Created 2020 Sep 19 21:07:21 UT using Find_Orb

Click here for an explanation of pseudo-MPECs

 
 Astrometry: 
     P115Ofk  C2020 09 12Ph*Xw.FwhFZhh)!Qi44FLub0Z;L$.#FlWYi@%gb!Pn_QyN?3/f_*F51
     P115Ofk  C2020 09 12NpCvB+SCw1@Q[a9acC/Hu.Pnv_ZAstrometry[Cb+a_(^j[[Al7bF51
     P115Ofk  C2020 09 12wrIj4f4w4c`?W\$8=TI=:Q!*f\YMh0Fk!4X51lxqeUSDGqFtc%?kF51
     P115Ofk  C2020 09 12UJ)H[):6=LKNr#^XS(Z$N\xkRredacted;#0,o@gsIi.Rclick)DF51
     P115Ofk  C2020 09 13oUowNrwf+Qne/v!.g-eRm4rZ.AJM-;v=0sE]q1B%aeUMBI9Np'FQF51
     P115Ofk  C2020 09 135AUhere,H!DforYeXHiiDkH+V#G^JwNA$OLnJ[TswU=1t[CCJ3AoF51
     P115Ofk  C2020 09 135MmNdexplanationGS;Ots$A)[O2^?CYUgVYTw)C$c6S'7,BgZoEF51
     P115Ofk  C2020 09 13ZkNo@P'%JK^%ln^kACp*4#1Kc-lw#8WnfL4qSmAX+F$y^Xk;0jrBF51

Station data:
(F51) Pan-STARRS 1, Haleakala  (N20.707235 W156.255910)  US/Hawaii.
   Observers N. Primak, A. Schultz, S. Watters, J. Thiel, T. Goggia. Measurer
   PS1 Science Consortium. 1.8-m Ritchey-Chrétien + CCD.

Orbital elements:  P115Ofk
   Perihelion 2021 Sep 29.255692 +/- 237 TT =  6:08:11 (JD 2459486.755692)
Epoch 2020 Sep 13.0 TT = JDT 2459105.5   Earth MOID: 0.6886   Ma: 0.0150
M 204.28883435 +/- 120              (J2000 ecliptic)          AutoNEOCP
n   0.40841663 +/- 0.173            Peri.  350.66140 +/- 80
a   1.79914887 +/- 0.508            Node   157.21345 +/- 3.5
e   0.0677042 +/- 0.267             Incl.   22.96527 +/- 17
P   2.41/881.44d           H 21.2   G  0.15   U 11.6  SR
q 1.67733894 +/- 0.513    Q 1.92095881 +/- 7.23
From 8 observations 2020 Sept. 12-13 (24.4 hr); mean residual 0".14
Residuals in arcseconds: 
200912 F51  .14-  .23+    200912 F51  .11+  .01+    200913 F51  .02+  .11+    
200912 F51  .00   .10-    200913 F51  .28-  .17-    200913 F51  .24+  .08+    
200912 F51  .04+  .14-    200913 F51  .00   .02-    

Ephemerides (geocentric):
Date (UTC) HH   RA              Dec         delta   r     elong  mag " sig PA
---- -- -- --  -------------   -----------  ------ ------ -----  --- ---- ---
2020 09 19 21  23 17 14.719   -17 10 58.24  .92820 1.9092 162.1 23.0  426 119
2020 09 19 22  23 17 12.427   -17 11 52.90  .92833 1.9091 162.1 23.0  431 119
2020 09 19 23  23 17 10.136   -17 12 47.51  .92845 1.9091 162.0 23.0  436 119
2020 09 20 00  23 17 07.846   -17 13 42.08  .92858 1.9091 162.0 23.0  441 119
2020 09 20 01  23 17 05.557   -17 14 36.60  .92871 1.9091 161.9 23.0  446 119
2020 09 20 02  23 17 03.270   -17 15 31.08  .92883 1.9091 161.9 23.0  451 119
2020 09 20 03  23 17 00.983   -17 16 25.52  .92896 1.9091 161.8 23.0  456 119
2020 09 20 04  23 16 58.699   -17 17 19.91  .92909 1.9091 161.8 23.0  461 119
2020 09 20 05  23 16 56.415   -17 18 14.26  .92922 1.9090 161.7 23.0  467 119
2020 09 20 06  23 16 54.133   -17 19 08.57  .92935 1.9090 161.7 23.1  472 119
2020 09 20 07  23 16 51.852   -17 20 02.83  .92948 1.9090 161.7 23.1  477 119
2020 09 20 08  23 16 49.572   -17 20 57.05  .92961 1.9090 161.6 23.1  482 119
2020 09 20 09  23 16 47.293   -17 21 51.22  .92974 1.9090 161.6 23.1  488 119
2020 09 20 10  23 16 45.016   -17 22 45.35  .92987 1.9090 161.5 23.1  493 119
2020 09 20 11  23 16 42.740   -17 23 39.44  .93000 1.9090 161.5 23.1  498 119
2020 09 20 12  23 16 40.466   -17 24 33.48  .93013 1.9089 161.4 23.1  504 119
2020 09 20 13  23 16 38.193   -17 25 27.48  .93026 1.9089 161.4 23.1  509 119
2020 09 20 14  23 16 35.921   -17 26 21.44  .93040 1.9089 161.3 23.1  515 119
2020 09 20 15  23 16 33.650   -17 27 15.34  .93053 1.9089 161.3 23.1  520 119
2020 09 20 16  23 16 31.381   -17 28 09.21  .93066 1.9089 161.2 23.1  526 119
2020 09 20 17  23 16 29.113   -17 29 03.03  .93080 1.9089 161.2 23.1  531 119
2020 09 20 18  23 16 26.847   -17 29 56.81  .93093 1.9088 161.1 23.1  537 119
2020 09 20 19  23 16 24.582   -17 30 50.54  .93106 1.9088 161.1 23.1  542 119
2020 09 20 20  23 16 22.318   -17 31 44.22  .93120 1.9088 161.0 23.1  548 119
2020 09 20 21  23 16 20.056   -17 32 37.86  .93133 1.9088 161.0 23.1  553 119
2020 09 20 22  23 16 17.795   -17 33 31.46  .93147 1.9088 160.9 23.1  559 119
2020 09 20 23  23 16 15.536   -17 34 25.01  .93161 1.9088 160.9 23.1  565 119
2020 09 21 00  23 16 13.278   -17 35 18.52  .93174 1.9088 160.8 23.1  570 119
2020 09 21 01  23 16 11.021   -17 36 11.98  .93188 1.9087 160.8 23.1  576 119
2020 09 21 02  23 16 08.766   -17 37 05.39  .93202 1.9087 160.7 23.1  582 119
2020 09 21 03  23 16 06.512   -17 37 58.76  .93216 1.9087 160.7 23.1  588 119
2020 09 21 04  23 16 04.260   -17 38 52.09  .93230 1.9087 160.6 23.1  593 119
2020 09 21 05  23 16 02.009   -17 39 45.37  .93243 1.9087 160.6 23.1  599 119
2020 09 21 06  23 15 59.760   -17 40 38.60  .93257 1.9087 160.5 23.1  605 119
2020 09 21 07  23 15 57.512   -17 41 31.79  .93271 1.9087 160.5 23.1  611 119
2020 09 21 08  23 15 55.265   -17 42 24.93  .93285 1.9086 160.4 23.1  617 119
2020 09 21 09  23 15 53.020   -17 43 18.03  .93299 1.9086 160.4 23.1  623 119
2020 09 21 10  23 15 50.777   -17 44 11.08  .93314 1.9086 160.3 23.1  629 119
2020 09 21 11  23 15 48.535   -17 45 04.08  .93328 1.9086 160.3 23.1  635 119
2020 09 21 12  23 15 46.294   -17 45 57.04  .93342 1.9086 160.2 23.1  641 119
2020 09 21 13  23 15 44.055   -17 46 49.95  .93356 1.9086 160.2 23.1  647 119
2020 09 21 14  23 15 41.818   -17 47 42.82  .93370 1.9085 160.1 23.1  653 119
2020 09 21 15  23 15 39.582   -17 48 35.64  .93385 1.9085 160.1 23.1  659 119
2020 09 21 16  23 15 37.347   -17 49 28.41  .93399 1.9085 160.0 23.1  665 119
2020 09 21 17  23 15 35.114   -17 50 21.14  .93413 1.9085 160.0 23.1  671 119
2020 09 21 18  23 15 32.883   -17 51 13.82  .93428 1.9085 159.9 23.1  678 119
2020 09 21 19  23 15 30.653   -17 52 06.46  .93442 1.9085 159.9 23.1  684 119
2020 09 21 20  23 15 28.425   -17 52 59.04  .93457 1.9085 159.8 23.1  690 119